Location: Nitra
(48.3167°N, 18.0833°E)
Time: 08:52:54
(UTC+02:00)

STARLINK-1764 - Pass Details

Date: 24 September 2020
Orbit: 378 x 381 km, 53.0° (Epoch: 24 October)

Event Time Altitude Azimuth Distance (km) Brightness Sun altitude
Exits shadow 03:44:33 16° 53° (NE) 1,094 6.0 -27.9°
Drops below altitude 10° 03:45:22 10° 60° (ENE) 1,396 6.7 -27.8°
Enters shadow 04:41:37 -69° 268° (W) 12,279 10.4 -19.6°
Maximum altitude 05:18:41 38° 11° (N) 598 4.0 -13.8°
